FW5697 Weather Reports


time (UTC)temp
F
wind
direction
speed
knots
gust
knots
rain 1hr
in
rain 24hr
in
rain mn
in
humidity
%
barometer
mb
20260506044536 61 0 0.0 0.0 0.00 0.00 0.00 78 1013.8
20260506043030 61 0 0.0 0.0 0.00 0.00 0.00 77 1013.9
20260506041530 61 0 0.0 0.0 0.00 0.00 0.00 75 1014.0
20260506040027 61 0 0.0 0.0 0.00 0.00 0.00 75 1014.3
20260506034528 62 0 0.0 0.0 0.00 0.00 0.00 74 1014.2
20260506033028 62 0 0.0 0.9 0.00 0.00 0.00 72 1014.2
20260506031534 62 0 0.0 0.0 0.00 0.00 0.00 71 1013.8
20260506030028 63 0 0.0 0.9 0.00 0.00 0.00 70 1014.0
20260506024534 64 0 0.0 0.0 0.00 0.00 0.00 69 1014.1
20260506023030 64 0 0.0 0.9 0.00 0.00 0.00 69 1014.1
20260506021526 65 0 0.0 0.0 0.00 0.00 0.00 65 1013.9
20260506020028 66 0 0.0 0.9 0.00 0.00 0.00 64 1014.0
20260506014530 67 0 0.0 0.0 0.00 0.00 0.00 63 1014.1
20260506013028 69 0 0.0 0.0 0.00 0.00 0.00 61 1013.8
20260506011530 69 0 0.0 0.0 0.00 0.00 0.00 57 1013.6
20260506010032 69 0 0.0 0.9 0.00 0.00 0.00 57 1013.7
20260506004537 70 0 0.0 0.0 0.00 0.00 0.00 57 1013.6
20260506003030 72 0 0.0 0.9 0.00 0.00 0.00 55 1013.6
20260506001528 74 0 0.0 0.0 0.00 0.00 0.00 48 1013.5
20260506000027 75 0 0.0 1.7 0.00 0.00 0.00 46 1013.6
20260505234600 76 0 0.0 2.6 0.00 0.00 0.00 44 1013.5
20260505233026 77 182 0.0 3.5 0.00 0.00 0.00 42 1013.3
20260505231529 78 211 0.9 4.3 0.00 0.00 0.00 39 1013.2
20260505230028 78 183 0.9 7.0 0.00 0.00 0.00 38 1013.2
20260505224533 79 0 1.7 5.2 0.00 0.00 0.00 40 1013.1
20260505223029 80 200 1.7 6.1 0.00 0.00 0.00 39 1013.1
20260505221530 80 201 1.7 6.1 0.00 0.00 0.00 38 1013.0
20260505220029 81 223 0.9 4.3 0.00 0.00 0.00 39 1013.0
20260505214535 81 140 0.9 3.5 0.00 0.00 0.00 38 1013.1
20260505213030 81 174 1.7 4.3 0.00 0.00 0.00 39 1013.2
20260505211530 81 133 0.0 5.2 0.00 0.00 0.00 43 1013.3
20260505210030 81 223 0.9 3.5 0.00 0.00 0.00 45 1013.3
20260505204529 81 134 0.9 3.5 0.00 0.00 0.00 41 1013.5
20260505203028 81 173 1.7 4.3 0.00 0.00 0.00 41 1013.5
20260505201532 81 173 1.7 6.1 0.00 0.00 0.00 42 1013.8
20260505200031 81 144 1.7 7.0 0.00 0.00 0.00 40 1013.8
20260505194530 81 207 1.7 5.2 0.00 0.00 0.00 39 1014.1
20260505193030 80 182 1.7 5.2 0.00 0.00 0.00 43 1014.1
20260505191528 79 183 1.7 7.0 0.00 0.00 0.00 42 1014.4
20260505190031 78 240 2.6 9.6 0.00 0.00 0.00 43 1014.6
20260505184530 78 200 1.7 7.0 0.00 0.00 0.00 45 1014.8
20260505183041 78 184 1.7 6.1 0.00 0.00 0.00 44 1015.0
20260505181527 77 184 0.9 5.2 0.00 0.00 0.00 46 1015.4
20260505180028 77 198 1.7 7.0 0.00 0.00 0.00 43 1015.7
20260505174528 77 180 1.7 4.3 0.00 0.00 0.00 47 1015.7
20260505173038 76 111 0.9 7.0 0.00 0.00 0.00 49 1015.8
20260505171533 75 186 1.7 5.2 0.00 0.00 0.00 49 1016.0
20260505170032 75 0 0.9 5.2 0.00 0.00 0.00 51 1016.0
20260505164527 74 211 1.7 4.3 0.00 0.00 0.00 53 1016.1
20260505163031 73 205 1.7 4.3 0.00 0.00 0.00 54 1016.2
20260505161529 73 163 1.7 4.3 0.00 0.00 0.00 56 1016.5
20260505153029 70 157 0.0 3.5 0.00 0.00 0.00 58 1016.8
20260505151529 68 0 0.0 4.3 0.00 0.00 0.00 64 1016.8
20260505124528 54 0 0.0 0.9 0.00 0.00 0.00 89 1015.4
20260505123028 52 0 0.0 1.7 0.00 0.00 0.00 90 1015.4
20260505121528 50 0 0.0 0.0 0.00 0.00 0.00 93 1015.5
20260505120028 49 0 0.0 0.0 0.00 0.00 0.00 93 1015.0
20260505114530 48 0 0.0 0.9 0.00 0.00 0.00 93 1015.0
20260505113032 47 0 0.0 0.0 0.00 0.00 0.00 93 1015.0
20260505111529 47 0 0.0 0.9 0.00 0.00 0.00 92 1015.0
20260505101529 48 0 0.0 0.0 0.00 0.00 0.00 90 1014.9
20260505100027 48 0 0.0 0.0 0.00 0.00 0.00 90 1014.7
20260505094530 48 0 0.0 0.0 0.00 0.00 0.00 90 1014.7
20260505093029 48 0 0.0 0.0 0.00 0.00 0.00 89 1014.9
20260505091530 49 0 0.0 0.9 0.00 0.00 0.00 89 1015.1
20260505090027 49 0 0.0 0.0 0.00 0.00 0.00 88 1015.2
20260505084535 49 0 0.0 0.0 0.00 0.00 0.00 89 1015.1
20260505083029 49 0 0.0 0.9 0.00 0.00 0.00 88 1015.0
20260505081528 49 0 0.0 0.0 0.00 0.00 0.00 88 1015.2
20260505080030 50 0 0.0 1.7 0.00 0.00 0.00 87 1015.1
20260505074529 50 0 0.0 0.0 0.00 0.00 0.00 87 1014.7
20260505073039 50 0 0.0 0.0 0.00 0.00 0.00 86 1014.7
20260505071531 51 0 0.0 0.0 0.00 0.00 0.00 85 1014.7
20260505070038 51 0 0.0 0.0 0.00 0.00 0.00 85 1014.7
20260505064527 52 0 0.0 0.0 0.00 0.00 0.00 84 1014.7
20260505063027 52 0 0.0 0.0 0.00 0.00 0.00 82 1014.7
20260505061538 53 0 0.0 0.0 0.00 0.00 0.00 81 1014.8
20260505060030 53 0 0.0 0.0 0.00 0.00 0.00 79 1014.9
20260505054536 54 0 0.0 0.0 0.00 0.00 0.00 79 1015.1
20260505053032 54 0 0.0 0.0 0.00 0.00 0.00 76 1015.1
20260505051531 55 0 0.0 0.0 0.00 0.00 0.00 74 1015.1